Weather History for KTTA - March, 2014

Change the Weather History Date:

Monday, March 17, 2014

  Actual Average (KRDU) Record (KRDU)
Temperature  
Mean Temperature 36 °F 52 °F  
Max Temperature 39 °F 64 °F 92 °F (1945)
Min Temperature 32 °F 40 °F 18 °F (1981)
Degree Days  
Heating Degree Days 30 14  
Month to date heating degree days 266  
Since 1 July heating degree days 2838  
Cooling Degree Days 0 0  
Month to date cooling degree days 0  
Year to date cooling degree days 1  
Moisture  
Dew Point 33 °F    
Average Humidity 95    
Maximum Humidity 98    
Minimum Humidity 92    
Precipitation  
Precipitation 0.19 in 0.14 in 1.33 in (1965)
Month to date precipitation 2.30  
Year to date precipitation 9.03  
Snow  
Snow 0.00 in 0.00 in 0.50 in (1915)
Month to date snowfall 0.4  
Since 1 July snowfall 5.9  
Snow Depth -    
Sea Level Pressure  
Sea Level Pressure 29.89 in    
Wind  
Wind Speed 9 mph (NNE)    
Max Wind Speed 13 mph    
Max Gust Speed 21 mph    
Visibility 8 miles    
Events Rain    
T = Trace of Precipitation, MM = Missing Value Source: NWS Daily Summary

Daily Weather History Graph

Daily Weather History Graph

Search for Another Location

Airport or City:

Trip Planner

Search our weather history database for the weather conditions in past years. The results will help you decide how hot, cold, wet, or windy it might be!

Date:

Astronomy

Mar. 17, 2014 Rise Set
Actual Time 7:24 AM EDT 7:25 PM EDT
Civil Twilight 6:58 AM EDT 7:51 PM EDT
Nautical Twilight 6:29 AM EDT 8:20 PM EDT
Astronomical Twilight 5:59 AM EDT 8:50 PM EDT
Moon 8:37 PM EDT (3/17) 7:41 AM EDT (3/17)
Length of Visible Light 12h 52m
Length of Day
12h 01m
Full, 99% of the Moon is Illuminated
Mar 17
Full
Mar 23
Last Quarter
Mar 30
New
Apr 7
First Quarter
Apr 15
Full

Hourly Weather History & Observations

Time (EDT) Temp. Windchill Dew Point Humidity Pressure Visibility Wind Dir Wind Speed Gust Speed Precip Events Conditions
12:15 AM 39.7 °F 34.9 °F 38.7 °F 96% 29.86 in 7.0 mi NNE 6.9 mph - 0.01 in   Drizzle
12:35 AM 39.2 °F 32.5 °F 38.3 °F 97% 29.86 in 7.0 mi NNE 10.4 mph - 0.02 in   Drizzle
12:55 AM 38.8 °F 32.1 °F 37.8 °F 96% 29.86 in 7.0 mi North 10.4 mph - 0.02 in   Drizzle
1:15 AM 38.3 °F 33.2 °F 37.4 °F 97% 29.85 in 7.0 mi North 6.9 mph 16.1 mph N/A Rain Rain
1:35 AM 38.1 °F 30.2 °F 36.7 °F 95% 29.85 in 5.0 mi NNE 12.7 mph 19.6 mph N/A   Drizzle
1:55 AM 37.6 °F 30.0 °F 36.7 °F 97% 29.84 in 5.0 mi NNE 11.5 mph 16.1 mph 0.01 in Rain Light Rain
2:15 AM 37.4 °F 30.3 °F 36.5 °F 97% 29.84 in 7.0 mi NNE 10.4 mph - N/A Rain Light Rain
2:35 AM 37.4 °F 30.8 °F 36.1 °F 95% 29.85 in 10.0 mi NNE 9.2 mph 17.3 mph N/A   Unknown
2:55 AM 37.4 °F 30.3 °F 36.3 °F 96% 29.84 in 7.0 mi NNE 10.4 mph 18.4 mph N/A   Unknown
3:15 AM 37.2 °F 30.0 °F 35.6 °F 94% 29.85 in 10.0 mi NNE 10.4 mph 18.4 mph N/A   Unknown
3:35 AM 36.7 °F 29.9 °F 35.1 °F 94% 29.84 in 7.0 mi NNE 9.2 mph 17.3 mph N/A   Drizzle
3:55 AM 36.5 °F 28.7 °F 35.6 °F 97% 29.84 in 5.0 mi NNE 11.5 mph 16.1 mph N/A   Light Drizzle
4:15 AM 36.0 °F 28.5 °F 34.7 °F 95% 29.84 in 7.0 mi NNE 10.4 mph 20.7 mph N/A   Light Drizzle
4:35 AM 35.8 °F 28.8 °F 34.7 °F 96% 29.84 in 5.0 mi NNE 9.2 mph - N/A Rain Light Rain
4:55 AM 35.8 °F 28.3 °F 34.7 °F 96% 29.84 in 7.0 mi NNE 10.4 mph 19.6 mph N/A   Light Drizzle
5:15 AM 35.6 °F 28.0 °F 34.5 °F 96% 29.83 in 4.0 mi NNE 10.4 mph 20.7 mph N/A Rain Light Rain
5:35 AM 35.6 °F 29.2 °F 34.0 °F 94% 29.83 in 10.0 mi NNE 8.1 mph - N/A   Unknown
5:55 AM 35.1 °F 26.9 °F 33.8 °F 95% 29.83 in 7.0 mi NNE 11.5 mph 18.4 mph N/A   Unknown
6:15 AM 34.9 °F 26.6 °F 33.1 °F 93% 29.83 in 10.0 mi NNE 11.5 mph 18.4 mph N/A   Unknown
6:35 AM 35.1 °F 26.4 °F 32.9 °F 92% 29.84 in 10.0 mi NNE 12.7 mph 18.4 mph N/A   Unknown
6:55 AM 35.1 °F 28.6 °F 33.1 °F 92% 29.85 in 10.0 mi NNE 8.1 mph - N/A   Unknown
7:15 AM 35.1 °F 28.6 °F 33.6 °F 94% 29.86 in 10.0 mi NNE 8.1 mph - N/A   Unknown
7:35 AM 34.9 °F 27.1 °F 33.6 °F 95% 29.86 in 10.0 mi NNE 10.4 mph - N/A   Unknown
7:55 AM 34.9 °F 27.7 °F 32.9 °F 92% 29.87 in 10.0 mi NNE 9.2 mph - N/A   Unknown
8:15 AM 34.9 °F 26.6 °F 32.9 °F 92% 29.89 in 10.0 mi NNE 11.5 mph 16.1 mph N/A   Unknown
8:35 AM 34.7 °F 25.9 °F 32.9 °F 93% 29.88 in 10.0 mi NNE 12.7 mph 17.3 mph N/A   Unknown
8:55 AM 34.5 °F 27.9 °F 32.9 °F 94% 29.88 in 10.0 mi NNE 8.1 mph - N/A   Unknown
9:15 AM 34.7 °F 26.4 °F 33.1 °F 94% 29.88 in 10.0 mi NNE 11.5 mph - N/A   Unknown
9:35 AM 34.3 °F 27.7 °F 32.5 °F 93% 29.87 in 10.0 mi NE 8.1 mph 19.6 mph N/A   Unknown
9:55 AM 34.7 °F 26.4 °F 32.9 °F 93% 29.86 in 10.0 mi NNE 11.5 mph 18.4 mph N/A   Unknown
10:15 AM 34.7 °F 28.8 °F 32.9 °F 93% 29.89 in 10.0 mi NNE 6.9 mph - N/A   Unknown
10:35 AM 34.7 °F 27.5 °F 33.1 °F 94% 29.90 in 10.0 mi NNE 9.2 mph - N/A   Unknown
10:55 AM 34.5 °F 26.7 °F 32.9 °F 94% 29.91 in 10.0 mi North 10.4 mph - N/A   Unknown
11:15 AM 34.7 °F 26.9 °F 32.9 °F 93% 29.93 in 10.0 mi North 10.4 mph - N/A   Unknown
11:35 AM 34.5 °F 28.6 °F 32.7 °F 93% 29.92 in 10.0 mi NNE 6.9 mph - N/A   Unknown
11:55 AM 34.0 °F 26.6 °F 32.5 °F 94% 29.93 in 3.0 mi NNE 9.2 mph 18.4 mph N/A   Drizzle
12:15 PM 34.0 °F 26.6 °F 32.5 °F 94% 29.93 in 4.0 mi NNE 9.2 mph - N/A Rain Light Rain
12:35 PM 34.2 °F 26.2 °F 32.9 °F 95% 29.93 in 7.0 mi North 10.4 mph - N/A   Unknown
12:55 PM 34.2 °F 27.5 °F 32.5 °F 94% 29.95 in 7.0 mi NNE 8.1 mph 16.1 mph N/A Rain Rain
1:15 PM 34.0 °F 29.8 °F 32.9 °F 96% 29.94 in 3.0 mi NE 4.6 mph - N/A Rain Light Rain
1:35 PM 34.0 °F 27.2 °F 33.3 °F 97% 29.91 in 3.0 mi NE 8.1 mph - N/A Rain Light Rain
1:55 PM 34.0 °F 27.2 °F 32.9 °F 96% 29.91 in 5.0 mi NNE 8.1 mph - N/A Rain Light Rain
2:15 PM 34.0 °F 28.8 °F 32.7 °F 95% 29.91 in 10.0 mi NE 5.8 mph - N/A   Light Drizzle
2:35 PM 34.2 °F 28.2 °F 32.5 °F 94% 29.90 in 10.0 mi NNE 6.9 mph - N/A   Unknown
2:55 PM 34.2 °F 26.8 °F 32.4 °F 93% 29.90 in 10.0 mi NNE 9.2 mph - N/A   Unknown
3:15 PM 34.5 °F 27.9 °F 32.5 °F 92% 29.91 in 4.0 mi North 8.1 mph - N/A Rain Light Rain
3:35 PM 34.7 °F 28.1 °F 33.1 °F 94% 29.91 in 5.0 mi NNE 8.1 mph - 0.01 in Rain Rain
3:55 PM 34.7 °F 30.6 °F 33.1 °F 94% 29.90 in 5.0 mi NE 4.6 mph - 0.02 in Rain Light Rain
4:15 PM 34.5 °F 27.3 °F 32.9 °F 94% 29.90 in 5.0 mi NNE 9.2 mph - 0.01 in Rain Rain
4:35 PM 34.0 °F 27.2 °F 32.9 °F 96% 29.90 in 5.0 mi NNE 8.1 mph - 0.02 in Rain Rain
4:55 PM 34.0 °F 28.0 °F 32.9 °F 96% 29.90 in 5.0 mi NNE 6.9 mph - 0.03 in Rain Rain
5:15 PM 34.3 °F 28.4 °F 33.1 °F 95% 29.90 in 5.0 mi NNE 6.9 mph - 0.01 in Rain Light Rain
5:35 PM 34.3 °F 28.4 °F 33.1 °F 95% 29.89 in 10.0 mi NNE 6.9 mph - 0.01 in Rain Rain
5:55 PM 34.2 °F 27.5 °F 32.9 °F 95% 29.89 in 10.0 mi NNE 8.1 mph - 0.01 in Rain Light Rain
6:15 PM 34.2 °F 27.5 °F 32.9 °F 95% 29.91 in 10.0 mi NNE 8.1 mph - 0.01 in Rain Light Rain
6:35 PM 34.0 °F 26.6 °F 32.7 °F 95% 29.91 in 7.0 mi NNE 9.2 mph - 0.02 in Rain Light Rain
6:55 PM 33.4 °F 25.9 °F 32.2 °F 95% 29.91 in 7.0 mi NNE 9.2 mph - 0.02 in Rain Light Rain
7:15 PM 33.3 °F 26.4 °F 32.2 °F 96% 29.91 in 7.0 mi NNE 8.1 mph - 0.01 in Rain Light Rain
7:35 PM 33.4 °F 26.6 °F 32.4 °F 96% 29.92 in 10.0 mi NE 8.1 mph - 0.01 in   Unknown
7:55 PM 33.3 °F 27.1 °F 32.4 °F 96% 29.91 in 10.0 mi NNE 6.9 mph - 0.02 in   Unknown
8:15 PM 33.1 °F 24.9 °F 32.0 °F 96% 29.92 in 10.0 mi NNE 10.4 mph - N/A   Unknown
8:35 PM 33.1 °F 26.1 °F 32.0 °F 96% 29.92 in 10.0 mi NNE 8.1 mph - N/A   Unknown
8:55 PM 33.1 °F 23.9 °F 32.0 °F 96% 29.93 in 10.0 mi NNE 12.7 mph - N/A   Unknown
9:15 PM 32.9 °F 24.7 °F 32.0 °F 96% 29.94 in 10.0 mi NNE 10.4 mph 16.1 mph N/A   Unknown
9:35 PM 32.7 °F 24.5 °F 31.8 °F 96% 29.96 in 10.0 mi NNE 10.4 mph - N/A   Unknown
9:55 PM 32.9 °F 25.3 °F 32.0 °F 96% 29.96 in 10.0 mi NNE 9.2 mph - N/A   Unknown
10:15 PM 32.7 °F 25.7 °F 32.0 °F 97% 29.96 in 10.0 mi NNE 8.1 mph - N/A   Unknown
10:35 PM 32.5 °F 24.2 °F 31.8 °F 97% 29.96 in 10.0 mi NNE 10.4 mph - 0.01 in   Unknown
10:55 PM 32.5 °F 25.5 °F 32.0 °F 98% 29.97 in 10.0 mi NNE 8.1 mph - 0.01 in   Unknown
11:35 PM 32.9 °F 25.3 °F 32.0 °F 96% 29.97 in 5.0 mi NNE 9.2 mph - 0.03 in   Unknown
11:55 PM 32.9 °F 26.7 °F 32.0 °F 96% 29.98 in 7.0 mi NNE 6.9 mph - 0.05 in   Unknown